Terug naar catalogus

FLTSATCOM 8

USA 46

ActiefMilitairGEO
NORAD 20253·PAYLOAD·🇺🇸 United States

Gelanceerd Sep 25, 1989 vanaf Cape Canaveral Space Force Station

Loading…

TLE

VersSource: Space-Track

Epoch: Sep 14, 2026, 14:24 UTC

1 20253U 89077A   26257.60014778 -.00000372  00000-0  00000-0 0  9991
2 20253  12.3979 350.6124 0002439 209.4757 135.3305  1.00273503261457

Volg FLTSATCOM 8 in realtime met AllMySat

Download on the App Store